Regional Weather Roundup
Issued by NWS

Home | Current Version | Previous Version | Text Only | Print | Product List | Glossary On
Versions: 1 2 3 4 5 6 7 8 9 10 11 12 13 14 15 16 17 18 19 20 21 22 23 24 25 26 27 28 29 30 31 32 33 34 35 36 37 38 39 40 41 42 43 44 45 46 47 48 49 50
665
ASUS44 KJAN 280410
RWRMS

MISSISSIPPI HOURLY WEATHER ROUNDUP
NATIONAL WEATHER SERVICE JACKSON MS
1000 PM CST FRI FEB 27 2015

NOTE: "FAIR: INDICATES FEW OR NO CLOUDS BELOW 12,000 FEET WITH NO
SIGNIFICANT WEATHER AND/OR OBSTRUCTIONS TO VISIBILITY.

MSZ001>002-007>008-010>013-018>021-025>028-034>036-280500-
NORTHWEST MISSISSIPPI

CITY           SKY/WX    TMP DP  RH WIND       PRES   REMARKS
CLARKSDALE     CLOUDY    28  23  80 N12       30.55S WCI  18
CLEVELAND      CLOUDY    30  26  83 N9        30.52S WCI  22
GREENWOOD        N/A    N/A N/A N/A MISG      30.51F
GREENVILLE     CLOUDY    31  23  72 NE12      30.51S WCI  22
OLIVE BRANCH   MOCLDY    27  18  69 NE12      30.55S WCI  16
OXFORD         MOCLDY    28  16  59 NE7       30.53S WCI  21
TUNICA         MOCLDY    30  21  69 NE13      30.56S WCI  20
$$

MSZ003>006-009-014>017-022>024-029>033-037>039-280500-
NORTHEAST MISSISSIPPI

CITY           SKY/WX    TMP DP  RH WIND       PRES   REMARKS
COLUMBUS AFB   CLOUDY    35  20  54 NE6       30.52R WCI  29
CORINTH        CLOUDY    32  14  47 NE8       30.53S WCI  25
GOLDN TRIANGLE CLOUDY    36  19  51 NE9       30.50S WCI  29
STARKVILLE     CLOUDY    36  21  55 NE8       30.51S WCI  29
TUPELO         CLOUDY    34  12  40 E7        30.52F WCI  28
$$

MSZ040-058-280500-
CENTRAL MISSISSIPPI

CITY           SKY/WX    TMP DP  RH WIND       PRES   REMARKS
JACKSON INTL   CLOUDY    39  22  50 NE9G20    30.47R WCI  33
JACKSON HAWKNS CLOUDY    38  22  52 NE10      30.47R WCI  31
MERIDIAN KEY   CLOUDY    37  22  54 N10       30.47S WCI  30
MERIDIAN NAS   CLOUDY    35  21  56 N6        30.48S WCI  30
VICKSBURG      CLOUDY    34  25  69 NE13      30.51R WCI  25
$$

MSZ059>079-280500-
SOUTH MISSISSIPPI

CITY           SKY/WX    TMP DP  RH WIND       PRES   REMARKS
BROOKHAVEN     FAIR      36  30  80 N7        30.45R WCI  30
HATTIESBURG    CLEAR     41  28  60 N8        30.44R
MCCOMB         CLEAR     39  27  62 N9        30.42R WCI  33
NATCHEZ        PTCLDY    34  25  69 N9        30.46S WCI  26
PINE BELT      CLEAR     39  25  56 N8        30.44R WCI  34
$$

MSZ080>082-280500-
COASTAL MISSISSIPPI

CITY           SKY/WX    TMP DP  RH WIND       PRES   REMARKS
BILOXI         PTCLDY    45  31  59 NE9       30.39R
PASCAGOULA     PTCLDY    44  31  60 CALM      30.40R
GULFPORT       CLEAR     45  29  53 NE10      30.40R
$$



USA.gov is the U.S. government's official web portal to all federal, state and local government web resources and services.